Weather History for KABI - February, 2014

Change the Weather History Date:

Wednesday, February 5, 2014

  Actual Average Record
Temperature  
Mean Temperature 25 °F 47 °F  
Max Temperature 33 °F 59 °F 83 °F (1925)
Min Temperature 16 °F 35 °F 9 °F (1989)
Degree Days  
Heating Degree Days 40 18  
Month to date heating degree days 159 94  
Since 1 July heating degree days 1952 1763  
Cooling Degree Days 0 0  
Month to date cooling degree days 0 0  
Year to date cooling degree days 0 1  
Moisture  
Dew Point 12 °F    
Average Humidity 70    
Maximum Humidity 82    
Minimum Humidity 57    
Precipitation  
Precipitation T in 0.04 in 0.76 in (1987)
Month to date precipitation 0.37 0.21  
Year to date precipitation 0.37 1.23  
Sea Level Pressure  
Sea Level Pressure 30.45 in    
Wind  
Wind Speed 17 mph (North)    
Max Wind Speed 29 mph    
Max Gust Speed 35 mph    
Visibility 10 miles    
Events Snow    
T = Trace of Precipitation, MM = Missing Value Source: NWS Daily Summary

Daily Weather History Graph

Daily Weather History Graph

Search for Another Location

Airport or City:

Trip Planner

Search our weather history database for the weather conditions in past years. The results will help you decide how hot, cold, wet, or windy it might be!

Date:

Astronomy

Feb. 05, 2014 Rise Set
Actual Time 7:30 AM CST 6:15 PM CST
Civil Twilight 7:04 AM CST 6:41 PM CST
Nautical Twilight 6:35 AM CST 7:10 PM CST
Astronomical Twilight 6:06 AM CST 7:39 PM CST
Moon 11:10 AM CST (2/5) No Moon Set
Length of Visible Light 11h 36m
Length of Day
10h 45m
Waxing Crescent, 39% of the Moon is Illuminated
Feb 5
Waxing Crescent
Feb 6
First Quarter
Feb 14
Full
Feb 22
Last Quarter
Mar 1
New

Hourly Weather History & Observations

Time (CST) Temp. Windchill Dew Point Humidity Pressure Visibility Wind Dir Wind Speed Gust Speed Precip Events Conditions
12:52 AM 30.0 °F 19.5 °F 23.0 °F 75% 30.22 in 10.0 mi North 13.8 mph 23.0 mph N/A   Clear
1:52 AM 28.9 °F 15.1 °F 21.0 °F 72% 30.25 in 10.0 mi North 23.0 mph 28.8 mph N/A   Clear
2:52 AM 27.0 °F 13.2 °F 19.9 °F 75% 30.27 in 10.0 mi North 20.7 mph 25.3 mph N/A   Clear
3:13 AM 27.0 °F 13.9 °F 19.9 °F 75% 30.27 in 10.0 mi North 18.4 mph 25.3 mph N/A   Mostly Cloudy
3:52 AM 27.0 °F 14.7 °F 19.9 °F 75% 30.31 in 10.0 mi North 16.1 mph 25.3 mph N/A   Overcast
4:52 AM 25.0 °F 9.2 °F 17.1 °F 72% 30.32 in 10.0 mi North 25.3 mph 33.4 mph N/A   Overcast
5:52 AM 23.0 °F 8.0 °F 15.1 °F 72% 30.38 in 10.0 mi North 20.7 mph 29.9 mph N/A   Scattered Clouds
6:01 AM 23.0 °F 8.0 °F 15.1 °F 72% 30.36 in 10.0 mi North 20.7 mph 27.6 mph N/A   Mostly Cloudy
6:52 AM 19.9 °F 3.5 °F 12.0 °F 71% 30.43 in 10.0 mi North 21.9 mph 31.1 mph N/A   Scattered Clouds
7:04 AM 19.9 °F 3.2 °F 12.0 °F 71% 30.39 in 10.0 mi North 23.0 mph 31.1 mph N/A   Mostly Cloudy
7:52 AM 18.0 °F 1.3 °F 10.9 °F 74% 30.47 in 10.0 mi North 20.7 mph 26.5 mph N/A   Mostly Cloudy
8:52 AM 18.0 °F 3.6 °F 10.9 °F 74% 30.53 in 5.0 mi North 15.0 mph - 0.00 in Snow Light Snow
9:52 AM 19.0 °F 4.0 °F 9.0 °F 65% 30.55 in 10.0 mi North 17.3 mph - 0.00 in   Overcast
10:52 AM 19.0 °F 3.6 °F 9.0 °F 65% 30.56 in 10.0 mi North 18.4 mph 28.8 mph N/A   Mostly Cloudy
11:52 AM 19.9 °F 5.2 °F 9.0 °F 62% 30.57 in 10.0 mi North 17.3 mph - N/A   Mostly Cloudy
12:52 PM 21.0 °F 7.1 °F 9.0 °F 60% 30.54 in 10.0 mi North 16.1 mph 24.2 mph 0.00 in   Overcast
1:52 PM 21.0 °F 7.1 °F 10.0 °F 63% 30.52 in 10.0 mi North 16.1 mph - N/A   Overcast
2:52 PM 21.9 °F 9.2 °F 10.9 °F 63% 30.48 in 10.0 mi North 13.8 mph 24.2 mph N/A   Mostly Cloudy
3:52 PM 21.9 °F 9.8 °F 10.9 °F 63% 30.48 in 10.0 mi North 12.7 mph 21.9 mph N/A   Mostly Cloudy
4:52 PM 21.0 °F 7.6 °F 10.9 °F 65% 30.48 in 10.0 mi North 15.0 mph 23.0 mph N/A   Mostly Cloudy
5:52 PM 19.9 °F 5.7 °F 10.0 °F 65% 30.48 in 10.0 mi NNE 16.1 mph - N/A   Overcast
6:52 PM 19.9 °F 6.7 °F 10.9 °F 68% 30.51 in 10.0 mi NNE 13.8 mph - N/A   Overcast
7:52 PM 19.0 °F 6.1 °F 10.9 °F 71% 30.52 in 10.0 mi NNE 12.7 mph 21.9 mph N/A   Overcast
8:52 PM 18.0 °F 4.2 °F 10.0 °F 71% 30.54 in 10.0 mi North 13.8 mph - N/A   Overcast
9:52 PM 18.0 °F 4.2 °F 10.0 °F 71% 30.53 in 10.0 mi North 13.8 mph - N/A   Overcast
10:52 PM 17.1 °F 3.0 °F 9.0 °F 71% 30.54 in 10.0 mi North 13.8 mph - N/A   Overcast
11:52 PM 16.0 °F 2.3 °F 8.1 °F 71% 30.56 in 10.0 mi North 12.7 mph - N/A   Overcast